EW4608 Weather Reports


time (UTC)temp
F
wind
direction
speed
knots
gust
knots
rain 1hr
in
rain 24hr
in
rain mn
in
humidity
%
barometer
mb
20220124110028 22 141 1.7 4.3 0.00 0.00 0.00 79 1012.5
20220124104543 22 168 1.7 2.6 0.00 0.00 0.00 79 1013.0
20220124103039 22 129 0.9 2.6 0.00 0.00 0.00 79 1013.2
20220124101522 22 159 0.9 4.3 0.00 0.00 0.00 79 1013.4
20220124100032 22 187 0.9 5.2 0.00 0.00 0.00 79 1013.7
20220124094521 22 150 1.7 6.1 0.00 0.00 0.00 79 1013.5
20220124093012 21 152 0.9 4.3 0.00 0.00 0.00 79 1013.9
20220124091531 21 142 1.7 3.5 0.00 0.00 0.00 80 1014.0
20220124090018 20 125 0.9 4.3 0.00 0.00 0.00 81 1014.3
20220124084512 20 202 0.0 0.0 0.00 0.00 0.00 81 1014.7
20220124083005 19 233 0.0 0.0 0.00 0.00 0.00 81 1015.0
20220124081520 19 233 0.0 0.0 0.00 0.00 0.00 81 1015.1
20220124080003 19 137 0.0 0.0 0.00 0.00 0.00 81 1015.0
20220124074715 19 137 0.0 0.0 0.00 0.00 0.00 80 1015.0
20220124073131 20 141 0.0 0.0 0.00 0.00 0.00 81 1015.2
20220124071651 19 114 0.0 0.9 0.00 0.00 0.00 81 1015.2
20220124070302 19 108 0.0 0.0 0.00 0.00 0.00 81 1015.6
20220124064641 20 108 0.0 0.0 0.00 0.00 0.00 80 1015.4
20220124063143 21 108 0.0 0.0 0.00 0.00 0.00 80 1015.7
20220124061613 21 108 0.0 0.0 0.00 0.00 0.00 80 1015.7
20220124060113 21 108 0.0 0.0 0.00 0.00 0.00 80 1016.1
20220124054632 21 108 0.0 0.0 0.00 0.00 0.00 79 1016.5
20220124053114 20 108 0.0 0.0 0.00 0.00 0.00 79 1016.5
20220124051551 20 108 0.0 0.0 0.00 0.00 0.00 79 1016.7
20220124050046 21 108 0.0 0.0 0.00 0.00 0.00 78 1016.7
20220124044554 21 108 0.0 0.0 0.00 0.00 0.00 77 1016.7
20220124043202 21 108 0.0 0.0 0.00 0.00 0.00 78 1016.8
20220124041826 21 108 0.0 1.7 0.00 0.00 0.00 78 1016.7
20220124040147 22 44 0.0 0.0 0.00 0.00 0.00 75 1016.9
20220124034537 23 44 0.0 2.6 0.00 0.00 0.00 76 1017.1
20220124033117 23 358 0.0 1.7 0.00 0.00 0.00 77 1017.1
20220124031537 22 126 0.0 0.0 0.00 0.00 0.00 76 1016.9
20220124030032 23 126 0.0 0.0 0.00 0.00 0.00 74 1016.8
20220124024544 24 126 0.0 0.9 0.00 0.00 0.00 73 1016.8
20220124023030 26 7 0.0 2.6 0.00 0.00 0.00 71 1017.2
20220124021550 26 19 0.9 7.8 0.00 0.00 0.00 70 1016.9
20220124020057 27 18 0.0 7.0 0.00 0.00 0.00 70 1017.0
20220124014530 28 30 1.7 7.0 0.00 0.00 0.00 72 1016.8
20220124013039 27 357 1.7 5.2 0.00 0.00 0.00 72 1017.0
20220124011620 27 319 0.9 3.5 0.00 0.00 0.00 71 1017.0
20220124010032 27 321 0.0 5.2 0.00 0.00 0.00 72 1017.2
20220124004524 27 346 0.0 3.5 0.00 0.00 0.00 71 1016.8
20220124003040 28 24 0.0 5.2 0.00 0.00 0.00 71 1016.7
20220124001535 28 327 0.9 4.3 0.00 0.00 0.00 71 1016.7
20220124000053 28 306 1.7 6.1 0.00 0.00 0.00 71 1016.4
20220123234624 28 335 0.9 6.1 0.00 0.00 0.00 71 1016.1
20220123233041 28 287 1.7 7.0 0.00 0.00 0.00 71 1015.9
20220123231543 29 355 2.6 7.0 0.00 0.00 0.00 71 1015.7
20220123230025 29 329 2.6 10.4 0.00 0.00 0.00 70 1015.5
20220123224528 29 309 2.6 6.1 0.00 0.00 0.00 70 1015.2
20220123223032 30 319 4.3 12.2 0.00 0.00 0.00 70 1015.0
20220123221547 30 62 3.5 9.6 0.00 0.00 0.00 70 1015.0
20220123220036 31 360 2.6 12.2 0.00 0.00 0.00 69 1014.8
20220123214521 32 333 3.5 10.4 0.00 0.00 0.00 67 1014.6
20220123213050 33 333 6.1 13.9 0.00 0.00 0.00 66 1014.4
20220123211536 34 321 4.3 9.6 0.00 0.00 0.00 65 1014.1
20220123210018 35 13 5.2 13.0 0.00 0.00 0.00 66 1013.8
20220123204516 35 7 5.2 13.0 0.00 0.00 0.00 68 1013.7
20220123203025 35 27 7.0 13.9 0.00 0.00 0.00 67 1013.4
20220123201518 38 330 2.6 7.8 0.00 0.00 0.00 64 1013.0
20220123200042 38 304 2.6 10.4 0.00 0.00 0.00 65 1012.7
20220123194520 38 300 3.5 11.3 0.00 0.00 0.00 64 1012.4
20220123193015 39 269 0.9 8.7 0.00 0.00 0.00 63 1012.3
20220123191551 39 347 5.2 15.6 0.00 0.00 0.00 63 1012.0
20220123190115 38 354 3.5 11.3 0.00 0.00 0.00 64 1012.0
20220123184524 38 304 4.3 13.9 0.00 0.00 0.00 62 1012.0
20220123183058 38 324 2.6 7.8 0.00 0.00 0.00 64 1012.0
20220123181502 37 281 2.6 9.6 0.00 0.00 0.00 64 1012.2
20220123180213 36 250 5.2 10.4 0.00 0.00 0.00 65 1012.1
20220123174613 35 254 1.7 7.8 0.00 0.00 0.00 67 1012.5
20220123173123 34 248 2.6 8.7 0.00 0.00 0.00 68 1012.7
20220123171558 34 250 2.6 7.8 0.00 0.00 0.00 68 1012.9
20220123170259 34 235 2.6 9.6 0.00 0.00 0.00 67 1013.3
20220123164605 34 264 4.3 10.4 0.00 0.00 0.00 67 1013.3
20220123163132 34 214 3.5 10.4 0.00 0.00 0.00 66 1013.4
20220123161608 33 256 2.6 8.7 0.00 0.00 0.00 66 1013.5
20220123160051 33 219 2.6 9.6 0.00 0.00 0.00 66 1013.8
20220123154618 33 242 5.2 10.4 0.00 0.00 0.00 68 1013.8
20220123153057 31 198 3.5 8.7 0.00 0.00 0.00 69 1013.8
20220123151601 30 152 1.7 3.5 0.00 0.00 0.00 71 1013.9
20220123150003 30 226 1.7 11.3 0.00 0.00 0.00 71 1014.0
20220123144505 30 216 5.2 11.3 0.00 0.00 0.00 71 1013.8
20220123143114 29 200 6.1 10.4 0.00 0.00 0.00 72 1014.0
20220123141629 28 200 5.2 8.7 0.00 0.00 0.00 74 1014.4
20220123140158 27 203 5.2 9.6 0.00 0.00 0.00 75 1014.5
20220123134725 27 219 4.3 8.7 0.00 0.00 0.00 75 1015.1
20220123133200 27 221 4.3 9.6 0.00 0.00 0.00 75 1015.3
20220123131559 26 213 5.2 9.6 0.00 0.00 0.00 76 1015.5
20220123130140 26 229 3.5 7.8 0.00 0.00 0.00 76 1016.2
20220123124554 26 208 3.5 7.8 0.00 0.00 0.00 76 1016.4
20220123123043 26 203 1.7 4.3 0.00 0.00 0.00 77 1016.9
20220123121539 25 197 1.7 4.3 0.00 0.00 0.00 77 1017.0
20220123120046 25 179 2.6 5.2 0.00 0.00 0.00 78 1017.0
20220123114528 25 206 0.9 3.5 0.00 0.00 0.00 78 1017.6
20220123113034 25 223 1.7 3.5 0.00 0.00 0.00 77 1017.6
20220123111529 25 252 1.7 6.1 0.00 0.00 0.00 77 1017.7